AMQ6018 EPKT-LGKR

Flight info

Callsign AMQ6018
Flight time 1h 56m
Altitude 37000
Route BABKO DCT DEMOP DCT ABONY DCT PARAK DCT REDVA UL616 KOGAT DCT BITLA UN731 YNN
Aircraft A320/M-SDE3FGHIRWY/LB1

Departure

Time 2026-05-05 13:39
Airport Katowice Wojciech Korfanty International Airport (EPKT)

Arrival

Time 2026-05-05 15:35
Airport Corfu Ioannis Kapodistrias International Airport (LGKR)
Time Latitude Longitude Altitude Speed Heading
2026-05-05 13:08 50.47151 19.08186 1020 ft 0 kts 177°
2026-05-05 13:30 50.47152 19.08186 993 ft 1 kts 177°
2026-05-05 13:31 50.47167 19.08185 995 ft 3 kts 175°
2026-05-05 13:31 50.47187 19.08182 993 ft 3 kts 172°
2026-05-05 13:31 50.47206 19.08176 995 ft 3 kts 162°
2026-05-05 13:31 50.47224 19.08164 992 ft 3 kts 137°
2026-05-05 13:32 50.47233 19.08146 992 ft 1 kts 92°
2026-05-05 13:32 50.47233 19.08142 992 ft 0 kts 89°
2026-05-05 13:35 50.47233 19.08147 992 ft 4 kts 91°
2026-05-05 13:35 50.47232 19.08290 997 ft 15 kts 91°
2026-05-05 13:35 50.47230 19.08459 1000 ft 16 kts 91°
2026-05-05 13:36 50.47229 19.08630 996 ft 16 kts 90°
2026-05-05 13:36 50.47227 19.08801 1001 ft 16 kts 90°
2026-05-05 13:36 50.47226 19.08975 999 ft 16 kts 90°
2026-05-05 13:36 50.47226 19.09140 1000 ft 14 kts 90°
2026-05-05 13:37 50.47226 19.09299 1002 ft 14 kts 84°
2026-05-05 13:37 50.47300 19.09390 1002 ft 17 kts
2026-05-05 13:37 50.47414 19.09394 1003 ft 15 kts
2026-05-05 13:37 50.47513 19.09396 1003 ft 13 kts
2026-05-05 13:38 50.47591 19.09352 1003 ft 14 kts 303°
2026-05-05 13:38 50.47601 19.09043 1002 ft 53 kts 270°
2026-05-05 13:38 50.47601 19.08101 990 ft 117 kts 271°
2026-05-05 13:38 50.47602 19.06533 985 ft 168 kts 269°
2026-05-05 13:39 50.47574 19.04744 1682 ft 159 kts 261°
2026-05-05 13:39 50.47554 19.02970 2274 ft 165 kts 264°
2026-05-05 13:39 50.47569 19.01155 2884 ft 169 kts 266°
2026-05-05 13:39 50.47579 18.99195 3216 ft 190 kts 266°
2026-05-05 13:40 50.47583 18.96994 3450 ft 215 kts 264°
2026-05-05 13:40 50.47174 18.94702 3799 ft 226 kts 229°
2026-05-05 13:40 50.45877 18.93303 4224 ft 243 kts 196°
2026-05-05 13:40 50.44165 18.92998 5000 ft 251 kts 181°
2026-05-05 13:41 50.42408 18.93112 5915 ft 254 kts 178°
2026-05-05 13:41 50.40628 18.93317 6743 ft 258 kts 178°
2026-05-05 13:41 50.38821 18.93495 7565 ft 262 kts 180°
2026-05-05 13:41 50.36988 18.93618 8379 ft 266 kts 181°
2026-05-05 13:42 50.35127 18.93691 9159 ft 269 kts 182°
2026-05-05 13:42 50.33243 18.93725 9933 ft 273 kts 183°
2026-05-05 13:42 50.31334 18.94097 10644 ft 281 kts 167°
2026-05-05 13:42 50.29544 18.95469 11240 ft 299 kts 148°
2026-05-05 13:43 50.28061 18.97964 11447 ft 332 kts 124°
2026-05-05 13:43 50.27016 19.01338 11605 ft 357 kts 118°
2026-05-05 13:43 50.25968 19.04948 12054 ft 369 kts 118°
2026-05-05 13:43 50.24901 19.08633 12705 ft 373 kts 118°
2026-05-05 13:44 50.23826 19.12335 13393 ft 376 kts 118°
2026-05-05 13:44 50.22734 19.16064 14027 ft 379 kts 118°
2026-05-05 13:44 50.21625 19.19826 14627 ft 382 kts 118°
2026-05-05 13:44 50.20506 19.23609 15236 ft 385 kts 118°
2026-05-05 13:45 50.19380 19.27411 15858 ft 388 kts 118°
2026-05-05 13:45 50.18123 19.31130 16473 ft 387 kts 124°
2026-05-05 13:45 50.16752 19.34758 17095 ft 389 kts 124°
2026-05-05 13:45 50.15369 19.38401 17727 ft 392 kts 124°
2026-05-05 13:46 50.13972 19.42075 18307 ft 395 kts 124°
2026-05-05 13:46 50.12581 19.45731 18800 ft 398 kts 124°
2026-05-05 13:46 50.11160 19.49467 19277 ft 402 kts 124°
2026-05-05 13:46 50.09727 19.53233 19762 ft 406 kts 124°
2026-05-05 13:47 50.08238 19.56988 20228 ft 408 kts 129°
2026-05-05 13:47 50.06375 19.60310 20643 ft 408 kts 140°
2026-05-05 13:47 50.04122 19.62999 21062 ft 409 kts 152°
2026-05-05 13:47 50.01577 19.64948 21483 ft 408 kts 163°
2026-05-05 13:48 49.98839 19.66112 21904 ft 409 kts 170°
2026-05-05 13:48 49.96030 19.67045 22323 ft 413 kts 171°
2026-05-05 13:48 49.93201 19.67984 22714 ft 417 kts 172°
2026-05-05 13:48 49.90311 19.68430 23092 ft 418 kts 183°
2026-05-05 13:49 49.87463 19.68044 23487 ft 416 kts 193°
2026-05-05 13:49 49.84660 19.66824 23934 ft 413 kts 202°
2026-05-05 13:49 49.82084 19.64889 24306 ft 412 kts 210°
2026-05-05 13:49 49.79575 19.62721 24614 ft 414 kts 211°
2026-05-05 13:50 49.77053 19.60541 25015 ft 415 kts 211°
2026-05-05 13:50 49.74529 19.58365 25422 ft 415 kts 210°
2026-05-05 13:50 49.72029 19.56221 25704 ft 419 kts 210°
2026-05-05 13:50 49.69465 19.54029 25950 ft 422 kts 211°
2026-05-05 13:51 49.66899 19.51840 26285 ft 422 kts 209°
2026-05-05 13:51 49.64212 19.50025 26712 ft 423 kts 199°
2026-05-05 13:51 49.61336 19.48966 26976 ft 428 kts 189°
2026-05-05 13:51 49.58341 19.48742 27148 ft 436 kts 179°
2026-05-05 13:52 49.55329 19.49406 27446 ft 441 kts 168°
2026-05-05 13:52 49.52363 19.50651 27799 ft 441 kts 167°
2026-05-05 13:52 49.49395 19.51904 28058 ft 443 kts 167°
2026-05-05 13:52 49.46409 19.53155 28269 ft 446 kts 167°
2026-05-05 13:53 49.43407 19.54408 28539 ft 446 kts 168°
2026-05-05 13:53 49.40417 19.55657 28825 ft 446 kts 168°
2026-05-05 13:53 49.37415 19.56909 29110 ft 447 kts 167°
2026-05-05 13:53 49.34431 19.58153 29352 ft 448 kts 168°
2026-05-05 13:54 49.31396 19.59414 29723 ft 446 kts 168°
2026-05-05 13:54 49.28437 19.60640 30018 ft 447 kts 167°
2026-05-05 13:54 49.25397 19.61899 30276 ft 447 kts 168°
2026-05-05 13:54 49.22444 19.63121 30583 ft 444 kts 168°
2026-05-05 13:55 49.19461 19.64356 30873 ft 444 kts 167°
2026-05-05 13:55 49.16479 19.65589 31113 ft 444 kts 167°
2026-05-05 13:55 49.13506 19.66819 31409 ft 443 kts 167°
2026-05-05 13:55 49.10525 19.68052 31651 ft 444 kts 167°
2026-05-05 13:56 49.07545 19.69283 31905 ft 444 kts 167°
2026-05-05 13:56 49.04564 19.70514 32229 ft 441 kts 168°
2026-05-05 13:56 49.01599 19.71738 32572 ft 439 kts 168°
2026-05-05 13:56 48.98650 19.72951 32802 ft 440 kts 168°
2026-05-05 13:57 48.95686 19.74163 32959 ft 442 kts 167°
2026-05-05 13:57 48.92716 19.75379 33181 ft 442 kts 167°
2026-05-05 13:57 48.89746 19.76592 33448 ft 441 kts 168°
2026-05-05 13:57 48.86781 19.77799 33733 ft 441 kts 168°
2026-05-05 13:58 48.83823 19.79002 34009 ft 440 kts 168°
2026-05-05 13:58 48.80903 19.80189 34225 ft 440 kts 167°
2026-05-05 13:58 48.77940 19.81396 34409 ft 441 kts 168°
2026-05-05 13:58 48.74974 19.82603 34583 ft 442 kts 168°
2026-05-05 13:59 48.69053 19.85014 35056 ft 440 kts 168°
2026-05-05 13:59 48.66090 19.86218 35304 ft 439 kts 167°
2026-05-05 14:00 48.60209 19.88600 35810 ft 436 kts 168°
2026-05-05 14:00 48.58234 19.89393 35971 ft 435 kts 167°
2026-05-05 14:00 48.54355 19.90948 36170 ft 437 kts 167°
2026-05-05 14:00 48.51412 19.92128 36310 ft 438 kts 168°
2026-05-05 14:01 48.48461 19.93309 36428 ft 439 kts 168°
2026-05-05 14:01 48.45504 19.94493 36561 ft 440 kts 167°
2026-05-05 14:01 48.42545 19.95680 36693 ft 441 kts 168°
2026-05-05 14:01 48.39585 19.96873 36857 ft 441 kts 167°
2026-05-05 14:02 48.33629 19.99271 36909 ft 446 kts 168°
2026-05-05 14:02 48.27623 20.01667 36913 ft 447 kts 167°
2026-05-05 14:03 48.21606 20.04054 36908 ft 447 kts 168°
2026-05-05 14:03 48.15503 20.05471 36910 ft 444 kts 182°
2026-05-05 14:04 48.09345 20.04975 36910 ft 444 kts 185°
2026-05-05 14:04 48.03173 20.04433 36913 ft 444 kts 186°
2026-05-05 14:05 47.97034 20.03913 36910 ft 444 kts 185°
2026-05-05 14:05 47.90863 20.03386 36917 ft 444 kts 185°
2026-05-05 14:06 47.84758 20.02856 36920 ft 443 kts 185°
2026-05-05 14:06 47.78584 20.02316 36920 ft 443 kts 185°
2026-05-05 14:07 47.72419 20.01778 36916 ft 443 kts 185°
2026-05-05 14:07 47.66263 20.01260 36923 ft 443 kts 185°
2026-05-05 14:08 47.60111 20.00730 36928 ft 443 kts 185°
2026-05-05 14:08 47.53959 20.00195 36927 ft 443 kts 185°
2026-05-05 14:09 47.47807 19.99664 36910 ft 443 kts 185°
2026-05-05 14:09 47.41641 19.99147 36909 ft 444 kts 185°
2026-05-05 14:10 47.35463 19.98631 36916 ft 445 kts 185°
2026-05-05 14:10 47.29281 19.98100 36918 ft 445 kts 185°
2026-05-05 14:11 47.23088 19.98333 36924 ft 447 kts 177°
2026-05-05 14:11 47.16879 19.98998 36930 ft 447 kts 178°
2026-05-05 14:12 47.10679 19.99652 36927 ft 447 kts 178°
2026-05-05 14:12 47.04512 20.00295 36931 ft 447 kts 178°
2026-05-05 14:13 46.98308 20.00941 36935 ft 447 kts 178°
2026-05-05 14:13 46.92102 20.01595 36934 ft 447 kts 178°
2026-05-05 14:14 46.85881 20.02249 36922 ft 448 kts 178°
2026-05-05 14:14 46.79662 20.02902 36923 ft 448 kts 178°
2026-05-05 14:15 46.74492 20.03440 36919 ft 449 kts 178°
2026-05-05 14:15 46.68259 20.04082 36921 ft 449 kts 178°
2026-05-05 14:16 46.62026 20.04726 36920 ft 449 kts 178°
2026-05-05 14:16 46.55796 20.05377 36923 ft 449 kts 178°
2026-05-05 14:17 46.49575 20.06023 36928 ft 449 kts 178°
2026-05-05 14:17 46.43343 20.06668 36925 ft 449 kts 178°
2026-05-05 14:18 46.37115 20.07303 36924 ft 449 kts 178°
2026-05-05 14:18 46.30885 20.07935 36926 ft 449 kts 178°
2026-05-05 14:19 46.24655 20.08575 36926 ft 449 kts 178°
2026-05-05 14:19 46.18433 20.09215 36922 ft 449 kts 178°
2026-05-05 14:20 46.12202 20.09959 36920 ft 449 kts 175°
2026-05-05 14:20 46.05987 20.11019 36924 ft 450 kts 174°
2026-05-05 14:21 45.99775 20.12140 36916 ft 450 kts 175°
2026-05-05 14:21 45.93592 20.13187 36922 ft 450 kts 175°
2026-05-05 14:22 45.87361 20.14191 36927 ft 451 kts 175°
2026-05-05 14:22 45.81127 20.15190 36927 ft 451 kts 175°
2026-05-05 14:23 45.74894 20.16203 36919 ft 451 kts 175°
2026-05-05 14:23 45.68653 20.17217 36926 ft 452 kts 175°
2026-05-05 14:24 45.62402 20.18231 36926 ft 452 kts 175°
2026-05-05 14:24 45.56146 20.19245 36917 ft 452 kts 175°
2026-05-05 14:25 45.49890 20.20247 36923 ft 453 kts 175°
2026-05-05 14:25 45.43628 20.21249 36932 ft 453 kts 175°
2026-05-05 14:26 45.37354 20.22249 36933 ft 454 kts 175°
2026-05-05 14:26 45.31079 20.23251 36932 ft 454 kts 175°
2026-05-05 14:27 45.24786 20.24261 36927 ft 455 kts 175°
2026-05-05 14:27 45.18498 20.25261 36935 ft 455 kts 175°
2026-05-05 14:28 45.12206 20.26260 36936 ft 455 kts 176°
2026-05-05 14:28 45.05948 20.27261 36938 ft 456 kts 176°
2026-05-05 14:29 44.99646 20.28266 36963 ft 456 kts 176°
2026-05-05 14:29 44.93341 20.29260 36967 ft 457 kts 176°
2026-05-05 14:30 44.87021 20.30254 36966 ft 457 kts 176°
2026-05-05 14:30 44.80698 20.31244 36967 ft 457 kts 176°
2026-05-05 14:31 44.74373 20.32235 36963 ft 457 kts 176°
2026-05-05 14:31 44.68045 20.33222 36961 ft 458 kts 176°
2026-05-05 14:32 44.61713 20.34206 36965 ft 458 kts 176°
2026-05-05 14:32 44.55381 20.35198 36964 ft 458 kts 176°
2026-05-05 14:33 44.49046 20.36189 36962 ft 459 kts 176°
2026-05-05 14:33 44.42699 20.37175 36962 ft 459 kts 176°
2026-05-05 14:34 44.36341 20.38153 36962 ft 459 kts 176°
2026-05-05 14:34 44.29984 20.39132 36954 ft 460 kts 176°
2026-05-05 14:35 44.23625 20.40114 36965 ft 460 kts 176°
2026-05-05 14:35 44.17251 20.41096 36965 ft 460 kts 176°
2026-05-05 14:36 44.10875 20.42072 36959 ft 461 kts 177°
2026-05-05 14:36 44.04540 20.43047 36964 ft 461 kts 176°
2026-05-05 14:37 43.98150 20.44024 36964 ft 462 kts 176°
2026-05-05 14:37 43.91760 20.44992 36966 ft 462 kts 176°
2026-05-05 14:38 43.85360 20.45969 36957 ft 463 kts 176°
2026-05-05 14:38 43.78940 20.46945 36960 ft 464 kts 176°
2026-05-05 14:39 43.72510 20.47919 36961 ft 465 kts 176°
2026-05-05 14:39 43.66089 20.48878 36966 ft 465 kts 177°
2026-05-05 14:40 43.59635 20.49846 36970 ft 466 kts 176°
2026-05-05 14:40 43.53179 20.50824 36982 ft 466 kts 176°
2026-05-05 14:41 43.46765 20.51797 36977 ft 467 kts 177°
2026-05-05 14:41 43.40291 20.52770 36982 ft 468 kts 177°
2026-05-05 14:42 43.33820 20.53737 36988 ft 468 kts 177°
2026-05-05 14:42 43.27335 20.54701 36984 ft 469 kts 177°
2026-05-05 14:43 43.20843 20.55667 37000 ft 470 kts 177°
2026-05-05 14:43 43.14336 20.56627 37006 ft 470 kts 177°
2026-05-05 14:44 43.07829 20.57585 37000 ft 471 kts 177°
2026-05-05 14:44 43.01333 20.58826 37000 ft 475 kts 168°
2026-05-05 14:45 42.95081 20.61873 37003 ft 478 kts 161°
2026-05-05 14:45 42.88885 20.65166 37005 ft 478 kts 161°
2026-05-05 14:46 42.82671 20.68428 37007 ft 478 kts 161°
2026-05-05 14:46 42.76447 20.71684 37024 ft 479 kts 161°
2026-05-05 14:47 42.70269 20.74922 37032 ft 479 kts 161°
2026-05-05 14:47 42.64040 20.78201 37032 ft 480 kts 161°
2026-05-05 14:48 42.57809 20.81467 37049 ft 480 kts 161°
2026-05-05 14:48 42.51558 20.84719 37045 ft 481 kts 161°
2026-05-05 14:49 42.45302 20.87970 37030 ft 482 kts 161°
2026-05-05 14:49 42.39039 20.91208 37032 ft 482 kts 162°
2026-05-05 14:50 42.32761 20.94453 37040 ft 483 kts 161°
2026-05-05 14:50 42.26478 20.97701 37029 ft 483 kts 162°
2026-05-05 14:51 42.20240 21.00921 37016 ft 484 kts 162°
2026-05-05 14:51 42.13910 21.04181 37016 ft 484 kts 162°
2026-05-05 14:52 42.07500 21.06518 37014 ft 479 kts 173°
2026-05-05 14:52 42.00937 21.08140 37010 ft 480 kts 174°
2026-05-05 14:53 41.94354 21.09745 37014 ft 480 kts 174°
2026-05-05 14:53 41.87783 21.11366 37013 ft 480 kts 174°
2026-05-05 14:54 41.81210 21.13003 37011 ft 480 kts 174°
2026-05-05 14:54 41.74630 21.14637 37010 ft 482 kts 174°
2026-05-05 14:55 41.68063 21.16247 37006 ft 484 kts 174°
2026-05-05 14:55 41.61431 21.17878 37001 ft 484 kts 174°
2026-05-05 14:56 41.54789 21.19508 37012 ft 486 kts 174°
2026-05-05 14:56 41.48140 21.21142 37023 ft 486 kts 174°
2026-05-05 14:57 41.41479 21.22767 37015 ft 486 kts 174°
2026-05-05 14:57 41.34815 21.24380 37021 ft 487 kts 174°
2026-05-05 14:58 41.28136 21.26004 37030 ft 488 kts 174°
2026-05-05 14:58 41.21461 21.27632 37030 ft 488 kts 174°
2026-05-05 14:59 41.14820 21.29240 37038 ft 488 kts 174°
2026-05-05 14:59 41.08147 21.30851 37042 ft 488 kts 174°
2026-05-05 15:00 41.02543 21.32202 37041 ft 488 kts 174°
2026-05-05 15:00 40.94776 21.34071 37040 ft 488 kts 175°
2026-05-05 15:01 40.91433 21.34874 36846 ft 488 kts 175°
2026-05-05 15:01 40.88071 21.35408 36580 ft 482 kts 184°
2026-05-05 15:01 40.84758 21.35261 36311 ft 474 kts 194°
2026-05-05 15:01 40.81496 21.34639 36054 ft 473 kts 195°
2026-05-05 15:02 40.78229 21.33990 35803 ft 475 kts 195°
2026-05-05 15:02 40.76064 21.33560 35647 ft 476 kts 195°
2026-05-05 15:02 40.72784 21.32911 35395 ft 476 kts 195°
2026-05-05 15:02 40.69503 21.32269 35148 ft 477 kts 196°
2026-05-05 15:03 40.66217 21.31627 34897 ft 478 kts 196°
2026-05-05 15:03 40.62920 21.30985 34647 ft 479 kts 196°
2026-05-05 15:03 40.59608 21.30342 34414 ft 481 kts 197°
2026-05-05 15:03 40.56296 21.29700 34171 ft 483 kts 196°
2026-05-05 15:04 40.52958 21.29055 33919 ft 485 kts 196°
2026-05-05 15:04 40.49623 21.28411 33638 ft 486 kts 196°
2026-05-05 15:04 40.46304 21.27658 33369 ft 480 kts 202°
2026-05-05 15:04 40.43159 21.26332 33101 ft 470 kts 211°
2026-05-05 15:05 40.37258 21.22722 32565 ft 470 kts 213°
2026-05-05 15:05 40.34325 21.20923 32311 ft 472 kts 213°
2026-05-05 15:05 40.31308 21.19087 32046 ft 473 kts 213°
2026-05-05 15:06 40.28350 21.17293 31792 ft 474 kts 212°
2026-05-05 15:06 40.25351 21.15476 31540 ft 475 kts 212°
2026-05-05 15:06 40.22349 21.13658 31278 ft 475 kts 212°
2026-05-05 15:06 40.19345 21.11841 31028 ft 474 kts 211°
2026-05-05 15:07 40.16354 21.10030 30781 ft 474 kts 211°
2026-05-05 15:07 40.13357 21.08212 30536 ft 474 kts 211°
2026-05-05 15:07 40.10360 21.06394 30293 ft 475 kts 211°
2026-05-05 15:07 40.07354 21.04574 30042 ft 476 kts 210°
2026-05-05 15:08 40.04388 21.02780 29478 ft 477 kts 210°
2026-05-05 15:08 40.01367 21.00954 28885 ft 478 kts 210°
2026-05-05 15:08 39.98345 20.99133 28327 ft 477 kts 210°
2026-05-05 15:08 39.95338 20.97329 27773 ft 474 kts 210°
2026-05-05 15:09 39.92347 20.95539 27231 ft 471 kts 210°
2026-05-05 15:09 39.89384 20.93761 26701 ft 467 kts 209°
2026-05-05 15:09 39.86453 20.91994 26181 ft 463 kts 209°
2026-05-05 15:09 39.83537 20.90237 25660 ft 460 kts 209°
2026-05-05 15:10 39.80643 20.88501 25159 ft 457 kts 209°
2026-05-05 15:10 39.77769 20.86785 24664 ft 453 kts 209°
2026-05-05 15:10 39.75002 20.84890 24175 ft 445 kts 217°
2026-05-05 15:10 39.72555 20.82496 23699 ft 436 kts 226°
2026-05-05 15:11 39.70478 20.79676 23117 ft 428 kts 235°
2026-05-05 15:11 39.68812 20.76548 22559 ft 418 kts 244°
2026-05-05 15:11 39.67565 20.73184 22008 ft 410 kts 252°
2026-05-05 15:11 39.66622 20.69707 21463 ft 406 kts 254°
2026-05-05 15:12 39.65690 20.66265 20936 ft 403 kts 254°
2026-05-05 15:12 39.64752 20.62847 20416 ft 401 kts 253°
2026-05-05 15:12 39.63814 20.59452 19908 ft 398 kts 253°
2026-05-05 15:12 39.62877 20.56079 19407 ft 396 kts 253°
2026-05-05 15:13 39.61945 20.52725 18908 ft 394 kts 253°
2026-05-05 15:13 39.61019 20.49387 18417 ft 392 kts 253°
2026-05-05 15:13 39.60098 20.46069 17861 ft 390 kts 253°
2026-05-05 15:13 39.59185 20.42774 17306 ft 387 kts 252°
2026-05-05 15:14 39.58280 20.39496 16765 ft 385 kts 252°
2026-05-05 15:14 39.57381 20.36243 16233 ft 383 kts 253°
2026-05-05 15:14 39.56495 20.33044 15721 ft 381 kts 252°
2026-05-05 15:14 39.55602 20.29821 15207 ft 379 kts 252°
2026-05-05 15:15 39.54714 20.26621 14700 ft 377 kts 252°
2026-05-05 15:15 39.53823 20.23424 14202 ft 376 kts 252°
2026-05-05 15:15 39.52937 20.20250 13683 ft 374 kts 252°
2026-05-05 15:15 39.52052 20.17087 13133 ft 372 kts 252°
2026-05-05 15:16 39.51178 20.13953 12598 ft 369 kts 252°
2026-05-05 15:16 39.50308 20.10838 12059 ft 366 kts 251°
2026-05-05 15:16 39.49444 20.07754 11537 ft 362 kts 251°
2026-05-05 15:16 39.48585 20.04699 11024 ft 359 kts 251°
2026-05-05 15:17 39.47734 20.01673 10519 ft 357 kts 251°
2026-05-05 15:17 39.46888 19.98668 10017 ft 353 kts 251°
2026-05-05 15:17 39.46051 19.95702 9470 ft 349 kts 251°
2026-05-05 15:17 39.45228 19.92792 9171 ft 337 kts 251°
2026-05-05 15:18 39.44442 19.90011 9040 ft 322 kts 250°
2026-05-05 15:18 39.43688 19.87338 8906 ft 309 kts 251°
2026-05-05 15:18 39.42968 19.84786 8777 ft 296 kts 251°
2026-05-05 15:18 39.42276 19.82336 8603 ft 286 kts 251°
2026-05-05 15:19 39.41621 19.79931 8270 ft 281 kts 256°
2026-05-05 15:19 39.41480 19.77443 7896 ft 278 kts 278°
2026-05-05 15:19 39.42086 19.75108 7536 ft 273 kts 302°
2026-05-05 15:19 39.43299 19.73302 7410 ft 261 kts 322°
2026-05-05 15:20 39.44854 19.72219 7262 ft 250 kts 343°
2026-05-05 15:20 39.46514 19.71775 7140 ft 238 kts 349°
2026-05-05 15:20 39.48123 19.71404 6906 ft 233 kts 349°
2026-05-05 15:20 39.49693 19.71039 6598 ft 232 kts 349°
2026-05-05 15:21 39.51276 19.70670 6258 ft 231 kts 349°
2026-05-05 15:21 39.52853 19.70305 5919 ft 230 kts 349°
2026-05-05 15:21 39.54450 19.69936 5583 ft 228 kts 349°
2026-05-05 15:21 39.55961 19.69585 5415 ft 220 kts 349°
2026-05-05 15:22 39.57458 19.69235 5139 ft 218 kts 349°
2026-05-05 15:22 39.58932 19.68889 5008 ft 216 kts 348°
2026-05-05 15:22 39.60414 19.68529 4995 ft 217 kts 344°
2026-05-05 15:22 39.61758 19.67626 4998 ft 223 kts 315°
2026-05-05 15:23 39.62587 19.65949 4995 ft 224 kts 284°
2026-05-05 15:23 39.62632 19.63952 4994 ft 224 kts 254°
2026-05-05 15:23 39.61908 19.62186 4996 ft 224 kts 232°
2026-05-05 15:23 39.61017 19.60525 4995 ft 225 kts 237°
2026-05-05 15:24 39.59994 19.59014 4990 ft 224 kts 214°
2026-05-05 15:24 39.58550 19.58283 4992 ft 225 kts 186°
2026-05-05 15:24 39.57009 19.58539 4993 ft 227 kts 157°
2026-05-05 15:24 39.55653 19.59594 4994 ft 229 kts 147°
2026-05-05 15:25 39.54328 19.60745 4995 ft 229 kts 147°
2026-05-05 15:25 39.53011 19.61887 4731 ft 227 kts 147°
2026-05-05 15:25 39.51700 19.63022 4401 ft 226 kts 147°
2026-05-05 15:25 39.50397 19.64147 4088 ft 224 kts 147°
2026-05-05 15:26 39.49104 19.65260 3782 ft 222 kts 147°
2026-05-05 15:26 39.47820 19.66364 3488 ft 221 kts 147°
2026-05-05 15:26 39.46557 19.67449 3315 ft 214 kts 147°
2026-05-05 15:26 39.45340 19.68493 3182 ft 205 kts 147°
2026-05-05 15:27 39.44168 19.69501 3083 ft 201 kts 147°
2026-05-05 15:27 39.43005 19.70500 2999 ft 199 kts 148°
2026-05-05 15:27 39.41859 19.71483 3000 ft 197 kts 148°
2026-05-05 15:27 39.40826 19.72637 3002 ft 198 kts 129°
2026-05-05 15:28 39.40173 19.74201 3037 ft 200 kts 109°
2026-05-05 15:28 39.39992 19.75990 3018 ft 202 kts 88°
2026-05-05 15:28 39.40183 19.77782 3000 ft 202 kts 82°
2026-05-05 15:28 39.40373 19.79540 2998 ft 195 kts 83°
2026-05-05 15:29 39.40553 19.81271 2998 ft 193 kts 82°
2026-05-05 15:29 39.40729 19.82993 3003 ft 193 kts 82°
2026-05-05 15:29 39.40906 19.84706 3004 ft 192 kts 82°
2026-05-05 15:29 39.41079 19.86388 3004 ft 190 kts 82°
2026-05-05 15:30 39.41255 19.88091 2968 ft 192 kts 82°
2026-05-05 15:30 39.41431 19.89803 2928 ft 192 kts 83°
2026-05-05 15:30 39.41608 19.91511 2914 ft 191 kts 82°
2026-05-05 15:30 39.41784 19.93221 2907 ft 192 kts 82°
2026-05-05 15:31 39.41999 19.94917 2906 ft 191 kts 71°
2026-05-05 15:31 39.42732 19.96322 2907 ft 190 kts 37°
2026-05-05 15:31 39.43928 19.96978 2842 ft 187 kts
2026-05-05 15:31 39.45197 19.96742 2714 ft 185 kts 343°
2026-05-05 15:32 39.46400 19.96290 2582 ft 175 kts 342°
2026-05-05 15:32 39.47546 19.95858 2402 ft 170 kts 341°
2026-05-05 15:32 39.48671 19.95434 2177 ft 167 kts 341°
2026-05-05 15:32 39.49786 19.95015 1950 ft 166 kts 341°
2026-05-05 15:33 39.50886 19.94602 1704 ft 162 kts 340°
2026-05-05 15:33 39.51936 19.94211 1483 ft 150 kts 342°
2026-05-05 15:33 39.52928 19.93840 1304 ft 147 kts 341°
2026-05-05 15:33 39.53889 19.93478 1114 ft 143 kts 342°
2026-05-05 15:34 39.54850 19.93114 923 ft 142 kts 340°
2026-05-05 15:34 39.55810 19.92750 733 ft 146 kts 340°
2026-05-05 15:34 39.56782 19.92385 565 ft 146 kts 340°
2026-05-05 15:34 39.57754 19.92000 375 ft 146 kts 339°
2026-05-05 15:35 39.58712 19.91616 125 ft 143 kts 341°
2026-05-05 15:35 39.59673 19.91350 9 ft 134 kts 346°
2026-05-05 15:35 39.60295 19.91187 10 ft 44 kts 348°
2026-05-05 15:35 39.60557 19.91114 8 ft 38 kts 349°
2026-05-05 15:36 39.60812 19.91055 12 ft 35 kts 348°
2026-05-05 15:36 39.61013 19.91027 9 ft 15 kts 25°
2026-05-05 15:36 39.61049 19.91065 10 ft 0 kts 49°
2026-05-05 15:37 39.61056 19.91081 9 ft 8 kts 64°
2026-05-05 15:37 39.61059 19.91093 9 ft 0 kts 76°
2026-05-05 15:38 39.61052 19.91125 10 ft 13 kts 121°
2026-05-05 15:38 39.60958 19.91153 9 ft 13 kts 176°
2026-05-05 15:39 39.60880 19.91166 9 ft 10 kts 171°
2026-05-05 15:39 39.60817 19.91184 10 ft 5 kts 168°
2026-05-05 15:39 39.60783 19.91193 9 ft 2 kts 167°
2026-05-05 15:39 39.60767 19.91198 9 ft 5 kts 167°
2026-05-05 15:40 39.60749 19.91224 9 ft 3 kts 113°
2026-05-05 15:40 39.60751 19.91246 9 ft 2 kts 79°
2026-05-05 15:40 39.60757 19.91288 11 ft 6 kts 78°
2026-05-05 15:40 39.60763 19.91319 9 ft 3 kts 78°
2026-05-05 15:41 39.60765 19.91330 9 ft 1 kts 78°
2026-05-05 15:41 39.60765 19.91335 9 ft 1 kts 78°
2026-05-05 15:41 39.60766 19.91341 9 ft 3 kts 78°
2026-05-05 15:41 39.60767 19.91347 9 ft 0 kts 78°